User: anonymous   Login
Location: Caltech
(34.1382°N, 118.1253°W)
Time: 23:22:39
(UTC-08:00)
Language:

ITAMSAT 1 - Orbit

View from above orbital plane
View from above orbital plane
View from above satellite
View from above satellite

Ground track
Ground track

The orbit data is extracted from the following two-line orbital elements,

1 22826U 93061D   17349.89245813 +.00000013 +00000-0 +22551-4 0  9996
2 22826 098.8324 317.9988 0009443 145.6460 214.5334 14.30346971263301
Epoch (UTC): 15 December 2017 21:25:08
Eccentricity: 0.0009443
inclination: 98.8324°
perigee height: 784 km
apogee height: 797 km
right ascension of ascending node: 317.9988°
argument of perigee: 145.6460°
revolutions per day: 14.30346971
mean anomaly at epoch: 214.5334°
orbit number at epoch: 26330

The dashed part of the orbit path shows where the satellite is in the earth's shadow,  

DLR